User: anonymous   Login
Location: ?????????
(55.6553°N, 38.9075°E)
Time: 10:30:33
(UTC+00:00)
Language:

NOSS 3-1 (C) - Orbit

View from above orbital plane
View from above orbital plane
View from above satellite
View from above satellite

Ground track
Ground track

The orbit data is extracted from the following two-line orbital elements,

1 26907U 01040C   19345.76969057 0.00000000  00000-0  00000-0 0    03
2 26907  63.4118 227.4199 0454002   0.5308 359.4692 13.41300500    09
Epoch (UTC): 11 December 2019 18:28:21
Eccentricity: 0.0454002
inclination: 63.4118°
perigee height: 765 km
apogee height: 1444 km
right ascension of ascending node: 227.4199°
argument of perigee: 0.5308°
revolutions per day: 13.41300500
mean anomaly at epoch: 359.4692°
orbit number at epoch: 0

The dashed part of the orbit path shows where the satellite is in the earth's shadow,  

DLR